When you browse on this site, cookies collect data to enhance your experience and personalize the content and advertising you see.
Visit our Privacy Policy to learn more. By continuing to use the site, you agree to this use of cookies and data.

Hourly Weather Leigh

Today, 8 July, Wednesday

Time Temperature Precipitation Wind Pressure Humidity
00:00 +13°C° 0 mm 1 mps 758 mmHg 93%
01:00 +13°C° 0.1 mm 1 mps 758 mmHg 92%
02:00 +13°C° 0.1 mm 1 mps 758 mmHg 92%
03:00 +13°C° 0.1 mm 1 mps 758 mmHg 91%
04:00 +13°C° 0 mm 2 mps 758 mmHg 90%
05:00 +13°C° 0 mm 2 mps 758 mmHg 89%
06:00 +14°C° 0 mm 2 mps 758 mmHg 88%
07:00 +15°C° 0 mm 2 mps 758 mmHg 84%
08:00 +15°C° 0 mm 2 mps 758 mmHg 80%
09:00 +16°C° 0 mm 3 mps 759 mmHg 76%
10:00 +17°C° 0 mm 3 mps 759 mmHg 76%
11:00 +17°C° 0 mm 3 mps 759 mmHg 76%
12:00 +17°C° 0 mm 3 mps 759 mmHg 75%
13:00 +17°C° 0 mm 3 mps 759 mmHg 74%
14:00 +18°C° 0 mm 3 mps 759 mmHg 72%
15:00 +19°C° 0 mm 3 mps 759 mmHg 71%
16:00 +18°C° 0.5 mm 3 mps 758 mmHg 77%
17:00 +17°C° 0.5 mm 3 mps 758 mmHg 82%
18:00 +16°C° 0.5 mm 3 mps 758 mmHg 87%
19:00 +16°C° 1.7 mm 3 mps 758 mmHg 89%
20:00 +15°C° 1.7 mm 4 mps 758 mmHg 91%
21:00 +14°C° 1.7 mm 4 mps 757 mmHg 93%
22:00 +14°C° 2 mm 4 mps 757 mmHg 92%
23:00 +14°C° 2 mm 4 mps 757 mmHg 92%

Tomorrow, 9 July, Thursday

Time Temperature Precipitation Wind Pressure Humidity
00:00 +14°C° 2 mm 5 mps 756 mmHg 92%
01:00 +13°C° 1.1 mm 4 mps 756 mmHg 92%
02:00 +13°C° 1.1 mm 4 mps 756 mmHg 92%
03:00 +13°C° 1.1 mm 4 mps 755 mmHg 93%
04:00 +13°C° 0.8 mm 4 mps 755 mmHg 92%
05:00 +13°C° 0.8 mm 4 mps 755 mmHg 91%
06:00 +13°C° 0.8 mm 5 mps 755 mmHg 90%
07:00 +13°C° 0 mm 5 mps 756 mmHg 89%
08:00 +12°C° 0 mm 5 mps 756 mmHg 88%
09:00 +12°C° 0 mm 5 mps 756 mmHg 87%
10:00 +12°C° 0.1 mm 4 mps 757 mmHg 87%
11:00 +12°C° 0.1 mm 4 mps 757 mmHg 87%
12:00 +13°C° 0.1 mm 4 mps 757 mmHg 86%
13:00 +13°C° 0 mm 3 mps 757 mmHg 85%
14:00 +13°C° 0 mm 3 mps 758 mmHg 84%
15:00 +13°C° 0 mm 3 mps 758 mmHg 83%
16:00 +13°C° 0 mm 3 mps 758 mmHg 82%
17:00 +14°C° 0 mm 2 mps 758 mmHg 81%
18:00 +14°C° 0 mm 2 mps 757 mmHg 80%
19:00 +14°C° 0 mm 1 mps 758 mmHg 81%
20:00 +13°C° 0 mm 1 mps 758 mmHg 82%
21:00 +12°C° 0 mm 0 mps 759 mmHg 83%
22:00 +13°C° 0 mm 1 mps 759 mmHg 85%
23:00 +12°C° 0 mm 1 mps 759 mmHg 86%

Day after tomorrow, 10 July, Friday

Time Temperature Precipitation Wind Pressure Humidity
00:00 +12°C° 0 mm 2 mps 759 mmHg 87%
01:00 +12°C° 0 mm 2 mps 759 mmHg 85%
02:00 +11°C° 0 mm 3 mps 759 mmHg 83%
03:00 +10°C° 0 mm 3 mps 759 mmHg 82%
04:00 +11°C° 0 mm 4 mps 759 mmHg 80%
05:00 +11°C° 0 mm 4 mps 759 mmHg 79%
06:00 +12°C° 0 mm 5 mps 759 mmHg 78%
07:00 +13°C° 0.1 mm 5 mps 759 mmHg 76%
08:00 +13°C° 0.1 mm 6 mps 759 mmHg 73%
09:00 +14°C° 0.1 mm 6 mps 760 mmHg 71%
10:00 +15°C° 0.3 mm 6 mps 760 mmHg 69%
11:00 +16°C° 0.3 mm 7 mps 760 mmHg 66%
12:00 +16°C° 0.3 mm 7 mps 760 mmHg 64%
13:00 +16°C° 0.1 mm 7 mps 761 mmHg 63%
14:00 +16°C° 0.1 mm 7 mps 761 mmHg 62%
15:00 +16°C° 0.1 mm 7 mps 761 mmHg 61%
16:00 +16°C° 0 mm 6 mps 761 mmHg 63%
17:00 +15°C° 0 mm 6 mps 762 mmHg 64%
18:00 +15°C° 0 mm 6 mps 762 mmHg 66%
19:00 +14°C° 0 mm 5 mps 763 mmHg 69%
20:00 +13°C° 0 mm 5 mps 763 mmHg 71%
21:00 +12°C° 0 mm 4 mps 764 mmHg 73%
22:00 +12°C° 0 mm 4 mps 764 mmHg 76%
23:00 +12°C° 0 mm 4 mps 765 mmHg 79%

11 July, Saturday

Time Temperature Precipitation Wind Pressure Humidity
00:00 +11°C° 0 mm 4 mps 765 mmHg 82%
01:00 +11°C° 0 mm 3 mps 765 mmHg 84%
02:00 +11°C° 0 mm 3 mps 765 mmHg 85%
03:00 +10°C° 0 mm 3 mps 765 mmHg 86%
04:00 +11°C° 0 mm 4 mps 766 mmHg 85%
05:00 +12°C° 0 mm 4 mps 766 mmHg 83%
06:00 +12°C° 0 mm 4 mps 766 mmHg 82%
07:00 +13°C° 0 mm 4 mps 766 mmHg 77%
08:00 +14°C° 0 mm 5 mps 767 mmHg 73%
09:00 +15°C° 0 mm 5 mps 767 mmHg 69%
10:00 +15°C° 0 mm 5 mps 767 mmHg 66%
11:00 +16°C° 0 mm 5 mps 767 mmHg 63%
12:00 +17°C° 0 mm 5 mps 767 mmHg 61%
13:00 +17°C° 0 mm 5 mps 767 mmHg 60%
14:00 +17°C° 0 mm 5 mps 767 mmHg 60%
15:00 +17°C° 0 mm 5 mps 767 mmHg 60%
16:00 +18°C° 0 mm 4 mps 767 mmHg 62%
17:00 +17°C° 0 mm 4 mps 767 mmHg 63%
18:00 +17°C° 0 mm 4 mps 767 mmHg 65%
19:00 +14°C° 0 mm 3 mps 768 mmHg 69%
20:00 +14°C° 0 mm 2 mps 768 mmHg 73%
21:00 +13°C° 0 mm 2 mps 768 mmHg 76%
22:00 +12°C° 0 mm 2 mps 768 mmHg 79%
23:00 +12°C° 0 mm 1 mps 768 mmHg 81%

12 July, Sunday

Time Temperature Precipitation Wind Pressure Humidity
00:00 +11°C° 0 mm 1 mps 768 mmHg 84%
01:00 +11°C° 0 mm 1 mps 768 mmHg 85%
02:00 +10°C° 0 mm 0 mps 768 mmHg 86%
03:00 +10°C° 0 mm 0 mps 768 mmHg 87%
04:00 +10°C° 0 mm 0 mps 768 mmHg 86%
05:00 +12°C° 0 mm 1 mps 768 mmHg 84%
06:00 +13°C° 0 mm 1 mps 768 mmHg 83%
07:00 +14°C° 0 mm 1 mps 768 mmHg 77%
08:00 +15°C° 0 mm 1 mps 768 mmHg 72%
09:00 +17°C° 0 mm 2 mps 768 mmHg 66%
10:00 +18°C° 0 mm 2 mps 768 mmHg 62%
11:00 +19°C° 0 mm 2 mps 768 mmHg 58%
12:00 +20°C° 0 mm 2 mps 767 mmHg 54%
13:00 +20°C° 0 mm 2 mps 767 mmHg 55%
14:00 +20°C° 0 mm 2 mps 767 mmHg 55%
15:00 +21°C° 0 mm 2 mps 767 mmHg 56%
16:00 +20°C° 0 mm 2 mps 767 mmHg 60%
17:00 +19°C° 0 mm 3 mps 766 mmHg 64%
18:00 +18°C° 0 mm 3 mps 766 mmHg 69%
19:00 +17°C° 0 mm 2 mps 766 mmHg 71%
20:00 +16°C° 0 mm 2 mps 766 mmHg 74%
21:00 +15°C° 0 mm 1 mps 766 mmHg 76%
22:00 +15°C° 0 mm 1 mps 766 mmHg 76%
23:00 +14°C° 0 mm 1 mps 766 mmHg 75%

13 July, Monday

Time Temperature Precipitation Wind Pressure Humidity
00:00 +14°C° 0 mm 1 mps 766 mmHg 75%
01:00 +14°C° 0 mm 1 mps 765 mmHg 74%
02:00 +14°C° 0 mm 1 mps 765 mmHg 73%
03:00 +14°C° 0 mm 1 mps 764 mmHg 72%
04:00 +14°C° 0 mm 1 mps 764 mmHg 72%
05:00 +14°C° 0 mm 1 mps 764 mmHg 72%
06:00 +14°C° 0 mm 1 mps 763 mmHg 72%
07:00 +15°C° 0 mm 2 mps 763 mmHg 68%
08:00 +16°C° 0 mm 2 mps 763 mmHg 65%
09:00 +17°C° 0 mm 2 mps 762 mmHg 61%
10:00 +18°C° 0 mm 2 mps 762 mmHg 60%
11:00 +19°C° 0 mm 3 mps 762 mmHg 59%
12:00 +19°C° 0 mm 3 mps 762 mmHg 57%
13:00 +19°C° 0 mm 3 mps 761 mmHg 60%
14:00 +19°C° 0 mm 4 mps 761 mmHg 63%
15:00 +18°C° 0 mm 4 mps 760 mmHg 67%
16:00 +17°C° 0.3 mm 3 mps 760 mmHg 72%
17:00 +16°C° 0.3 mm 3 mps 760 mmHg 78%
18:00 +14°C° 0.3 mm 3 mps 760 mmHg 84%
19:00 +13°C° 0.3 mm 3 mps 760 mmHg 84%
20:00 +14°C° 0.3 mm 2 mps 760 mmHg 85%
21:00 +14°C° 0.3 mm 2 mps 760 mmHg 85%
22:00 +13°C° 0.1 mm 2 mps 759 mmHg 86%
23:00 +13°C° 0.1 mm 2 mps 759 mmHg 87%
Show more